Location: Newark
(42.8481°N, 0.4872°E)
Time: 23:41:36
(UTC+00:00)

SR - Pass Details

Date: 06 November 2020
Orbit: 579 x 876 km, 66.7° (Epoch: 29 November)

Event Time Altitude Azimuth Distance (km) Brightness Sun altitude
Rises 07:03:29 0° 340° (NNW) 3,056 ? 3.3°
Reaches altitude 10° 07:06:33 10° 1° (N) 2,198 ? 3.8°
Maximum altitude 07:09:50 17° 42° (NE) 1,819 ? 4.3°
Drops below altitude 10° 07:13:16 10° 83° (E) 2,322 ? 4.9°
Sets 07:16:37 0° 102° (ESE) 3,308 ? 5.4°
